Tracking 25195 objects as of 21-Jan-2022
HD Live streaming from Space Station
objects crossing your sky now

STARLINK-2120

Track STARLINK-2120 now!
10-day predictions
STARLINK-2120 is classified as:


NORAD ID: 47398
Int'l Code: 2021-005BB
Perigee: 553.4 km
Apogee: 555.4 km
Inclination: 53.1 °
Period: 95.6 minutes
Semi major axis: 6925 km
RCS: Unknown
Launch date: January 20, 2021
Source: United States (US)
Launch site: AIR FORCE EASTERN TEST RANGE (AFETR)
aabbcc
Your satellite tracking list
Your tracking list is empty




NASA's NSSDC Master Catalog

Two Line Element Set (TLE):
1 47398U 21005BB  22020.25890998  .00004481  00000-0  31960-3 0  9994
2 47398  53.0549 327.7104 0001448  71.2280 288.8866 15.06390187 55950
Source of the keplerian elements: AFSPC